{"data":{"norad_id":68114,"epoch":"2026-05-25T03:59:57.872256Z","epoch_age_seconds":53927,"freshness":"FRESH","line1":"1 68114U 26044P   26145.16664204  .00038175  00000+0  11785-2 0  9990","line2":"2 68114  97.2846 105.7992 0000492  74.2447 285.8850 15.33455702 13302","mean_motion":15.33455702,"eccentricity":4.92e-5,"inclination_deg":97.2846,"raan_deg":105.7992,"arg_perigee_deg":74.2447,"mean_anomaly_deg":285.885,"bstar":0.0011785,"rev_number":1330,"period_min":93.905549284657,"perigee_km":465.17462554283,"apogee_km":465.8480405388,"semimajor_km":6843.6483330408,"source":"CELESTRAK","updated_at":"2026-05-25T13:38:21.843496Z"}}